Location: Banff
(51.1667°N, 115.5667°W)
Time: 02:47:53
(UTC+00:00)

deb Explorer IX - Pass Details

Date: 03 December 2020
Orbit: 536 x 1104 km, 38.8° (Epoch: 25 January)

Event Time Altitude Azimuth Distance (km) Brightness Sun altitude
Rises 03:21:57 0° 258° (WSW) 3,354 ? -34.2°
Reaches altitude 10° 03:26:56 10° 221° (SW) 2,236 ? -34.9°
Enters shadow 03:27:35 10° 214° (SW) 2,181 ? -35.0°
